Location: Harburg
(48.7667°N, 10.6667°E)
Time: 08:37:50
(UTC+00:00)

Cosmos 2082 Rocket - Pass Details

Date: 18 September 2020
Orbit: 834 x 853 km, 71.0° (Epoch: 27 October)

Event Time Altitude Azimuth Distance (km) Brightness Sun altitude
Rises 18:55:21 0° 335° (NNW) 3,393 6.1 -15.7°
Reaches altitude 10° 18:59:00 10° 359° (N) 2,456 4.9 -16.2°
Maximum altitude 19:02:06 15° 33° (NNE) 2,128 4.2 -16.7°
Enters shadow 19:04:34 12° 61° (ENE) 2,336 4.1 -17.1°
